Temperature
1 1 0 0 -0 -1 -1 1 2 3 2 2 1 0 -1 -2 -3 -3 -3 -4 -4 -4 -4 -4 -4 -4 -4 -4 -5 -5 -5 -4 -4 -4 -4 -5 -5 -5 -5 -5 -5 -5 -5 -5
-1 -1 -1 -1 -0 -1 -1 -0 -0 0 1 0 -1 -2 -2 -3 -3 -4 -4 -4 -5 -5 -5 -5 -5 -5 -5 -5 -5 -5 -5 -5 -5 -5 -5 -5 -5 -5 -5 -5 -5 -5 -6 -6
1 -1 -1 0 0 -1 -1 -2 -1 -0 0 -1 -2 -3 -3 -4 -4 -4 -5 -5 -5 -6 -5 -5 -5 -5 -6 -6 -6 -6 -6 -6 -6 -6 -6 -6 -6 -6 -6 -6 -6 -6 -6 -6
-0 -1 -0 2 -2 -2 -2 -2 -3 -2 -2 -3 -3 -4 -5 -5 -5 -5 -5 -6 -6 -6 -6 -6 -6 -6 -6 -6 -6 -6 -6 -6 -6 -6 -7 -7 -7 -7 -7 -7 -7 -7 -7 -6
-1 -0 1 0 -2 -3 -3 -2 -3 -3 -3 -4 -5 -5 -4 -5 -5 -5 -6 -6 -6 -6 -6 -6 -6 -6 -7 -7 -7 -7 -7 -7 -7 -7 -7 -7 -7 -7 -7 -7 -7 -7 -7 -7
-2 -1 0 1 -3 -5 -3 -2 -3 -5 -5 -5 -5 -3 -3 -5 -6 -6 -6 -6 -7 -7 -7 -7 -7 -7 -7 -7 -7 -7 -8 -8 -7 -7 -7 -7 -8 -8 -8 -8 -8 -7 -7 -7
-2 -2 -0 -3 -5 -4 -2 -1 -4 -5 -5 -6 -5 -5 -6 -6 -7 -7 -7 -7 -7 -7 -7 -7 -7 -7 -7 -8 -8 -8 -8 -8 -8 -8 -8 -8 -8 -8 -8 -8 -8 -8 -8 -7
-3 -2 -1 -5 -5 -4 -4 -5 -6 -6 -6 -7 -7 -7 -7 -7 -7 -8 -8 -8 -8 -8 -8 -7 -7 -8 -8 -8 -8 -8 -8 -8 -8 -8 -8 -8 -9 -8 -8 -8 -8 -8 -8 -8
-3 -3 -4 -6 -6 -6 -6 -6 -7 -7 -7 -7 -8 -8 -8 -8 -8 -8 -8 -8 -8 -8 -8 -8 -8 -8 -8 -8 -9 -9 -9 -8 -8 -9 -9 -9 -9 -9 -9 -9 -9 -9 -9 -9
-5 -5 -6 -7 -7 -7 -7 -7 -7 -8 -8 -8 -8 -8 -8 -8 -8 -8 -8 -8 -8 -8 -8 -8 -8 -8 -9 -9 -9 -9 -9 -9 -9 -9 -9 -9 -9 -9 -9 -9 -9 -9 -9 -9
-6 -6 -7 -7 -8 -7 -8 -8 -8 -8 -8 -8 -9 -9 -9 -9 -9 -9 -9 -9 -9 -9 -9 -9 -9 -9 -9 -9 -9 -9 -9 -9 -9 -9 -9 -10 -10 -10 -10 -10 -10 -10 -10 -10
-5 -6 -7 -7 -8 -8 -8 -8 -9 -9 -9 -9 -9 -9 -9 -9 -9 -10 -10 -9 -10 -9 -9 -9 -9 -9 -9 -10 -10 -10 -10 -10 -10 -10 -10 -10 -10 -10 -10 -10 -10 -10 -10 -10
-8 -8 -8 -8 -8 -9 -9 -9 -9 -9 -9 -9 -9 -9 -9 -10 -10 -10 -10 -10 -10 -10 -10 -10 -10 -10 -10 -10 -10 -10 -10 -10 -10 -10 -11 -11 -11 -11 -11 -11 -10 -10 -10 -10
-9 -9 -9 -9 -9 -9 -10 -10 -10 -10 -10 -10 -10 -10 -10 -10 -10 -10 -10 -10 -10 -10 -10 -10 -10 -10 -10 -10 -10 -10 -10 -11 -11 -11 -11 -11 -11 -11 -11 -11 -11 -11 -11 -11
-10 -10 -10 -10 -10 -10 -10 -10 -10 -10 -10 -10 -10 -10 -10 -10 -10 -10 -10 -11 -11 -11 -11 -11 -11 -11 -11 -11 -11 -11 -11 -11 -11 -11 -11 -11 -12 -12 -12 -12 -12 -12 -12 -11
-10 -10 -10 -10 -10 -10 -11 -11 -11 -11 -11 -11 -11 -11 -11 -11 -11 -11 -11 -11 -11 -11 -11 -11 -11 -11 -11 -11 -11 -11 -12 -12 -12 -12 -12 -12 -12 -12 -12 -12 -12 -12 -12 -12
-11 -11 -11 -11 -11 -11 -11 -11 -11 -11 -11 -11 -11 -11 -11 -11 -11 -11 -11 -11 -11 -11 -11 -11 -11 -11 -12 -12 -12 -12 -12 -12 -12 -12 -12 -12 -12 -12 -13 -13 -13 -13 -13 -12
-11 -11 -11 -12 -12 -12 -12 -12 -12 -12 -12 -12 -12 -12 -12 -12 -12 -12 -12 -11 -11 -11 -12 -12 -12 -12 -12 -12 -12 -12 -12 -12 -13 -13 -13 -13 -13 -13 -13 -13 -13 -13 -13 -13
-12 -12 -12 -12 -12 -12 -12 -12 -12 -12 -12 -12 -12 -12 -12 -12 -12 -12 -12 -12 -12 -12 -12 -12 -12 -12 -12 -12 -12 -12 -12 -13 -13 -13 -13 -13 -13 -13 -13 -13 -13 -13 -13 -13
-12 -12 -12 -12 -13 -13 -13 -13 -12 -12 -12 -12 -12 -12 -12 -12 -12 -12 -12 -12 -12 -12 -12 -12 -12 -12 -12 -12 -13 -13 -13 -13 -13 -13 -13 -13 -13 -13 -13 -13 -13 -13 -13 -13
-13 -13 -13 -13 -13 -13 -13 -13 -13 -13 -13 -13 -13 -13 -13 -13 -13 -13 -13 -13 -12 -12 -12 -12 -12 -13 -13 -13 -13 -13 -13 -13 -13 -14 -14 -14 -14 -14 -14 -14 -14 -14 -14 -14
-13 -13 -13 -13 -13 -13 -13 -13 -13 -13 -13 -13 -13 -13 -13 -13 -13 -13 -13 -13 -13 -13 -13 -13 -13 -13 -13 -13 -13 -13 -14 -14 -14 -14 -14 -14 -14 -14 -14 -14 -14 -14 -14 -14
-14 -14 -14 -14 -14 -14 -14 -14 -14 -14 -14 -14 -14 -14 -14 -14 -14 -14 -14 -14 -14 -14 -14 -13 -13 -13 -13 -14 -14 -14 -14 -14 -14 -14 -14 -14 -14 -14 -14 -14 -14 -14 -14 -14
-14 -14 -14 -14 -14 -14 -14 -14 -14 -14 -14 -14 -14 -14 -14 -14 -14 -14 -14 -14 -14 -14 -14 -14 -14 -14 -14 -14 -14 -14 -14 -15 -15 -15 -15 -15 -15 -15 -15 -15 -15 -15 -15 -14
-14 -14 -14 -14 -15 -15 -15 -15 -15 -15 -15 -15 -15 -15 -15 -15 -15 -15 -15 -15 -15 -15 -15 -14 -14 -14 -14 -14 -15 -15 -15 -15 -15 -15 -15 -15 -15 -15 -15 -15 -15 -15 -15 -15
-15 -15 -15 -15 -15 -15 -16 -15 -15 -15 -15 -15 -15 -15 -15 -15 -15 -15 -15 -15 -15 -15 -15 -15 -15 -15 -15 -15 -15 -15 -15 -15 -15 -15 -15 -15 -15 -15 -15 -15 -15 -15 -15 -15
-15 -15 -15 -15 -15 -16 -16 -16 -16 -16 -16 -16 -16 -16 -16 -15 -15 -15 -15 -15 -15 -15 -15 -15 -15 -15 -15 -15 -15 -15 -15 -15 -15 -16 -16 -16 -16 -16 -16 -16 -16 -16 -15 -15
Wind_Speed
12 11 9 11 12 13 14 15 14 16 16 15 11 9 8 7 7 7 7 7 7 7 7 6 6 6 6 6 6 6 7 7 7 7 6 6 6 6 7 7 8 8 8 8
9 8 8 12 15 16 16 15 18 20 19 12 10 7 7 7 7 8 8 8 8 8 8 7 6 6 6 6 6 6 7 7 6 6 6 6 6 6 6 7 7 8 8 9
7 5 6 11 11 12 10 11 11 15 13 8 7 7 7 8 8 9 9 9 9 9 8 8 7 6 6 6 6 6 6 6 6 6 6 6 6 6 7 7 7 8 9 9
5 4 9 5 0 4 8 9 10 11 9 8 8 8 8 8 8 8 8 8 9 8 8 7 6 6 6 5 6 6 6 6 6 6 6 5 6 6 7 6 7 8 8 9
4 7 10 6 2 1 5 8 8 10 10 9 7 7 7 4 5 7 8 8 8 7 7 6 6 5 4 5 5 5 5 5 5 6 6 6 6 6 6 6 6 7 7 8
5 7 8 4 1 2 3 6 2 4 7 7 5 6 6 6 8 9 8 7 7 6 6 5 5 4 4 4 4 5 5 5 5 5 5 6 6 6 5 5 6 6 6 7
9 9 8 2 2 1 4 4 3 4 6 6 6 7 8 9 9 8 8 7 6 5 5 5 5 3 4 4 4 4 4 4 4 4 5 5 5 5 5 5 5 5 6 6
6 7 7 2 0 3 4 5 4 5 6 7 8 8 9 9 8 8 8 7 6 5 5 5 4 3 3 4 4 3 3 3 3 3 3 3 4 4 4 4 4 5 5 5
6 5 3 1 3 4 5 5 6 6 7 7 8 8 8 8 8 8 8 7 6 5 5 4 3 2 3 4 3 3 3 3 2 2 3 3 3 3 3 4 4 3 4 4
5 6 6 5 5 6 6 6 7 7 7 7 7 8 8 7 7 7 7 6 5 4 4 4 3 3 3 3 2 2 2 2 2 2 2 2 2 3 3 3 4 3 3 4
6 6 6 5 6 7 7 7 7 7 6 6 7 7 7 6 7 7 6 6 4 3 4 4 4 3 3 2 1 1 2 2 2 2 2 2 2 3 3 4 4 4 4 4
6 5 6 7 6 6 6 7 7 6 7 7 6 7 7 6 6 6 6 5 4 4 4 4 4 3 3 2 1 1 1 1 1 1 1 1 2 3 4 4 5 6 7 7
6 6 7 7 7 6 6 7 7 6 6 7 7 6 6 6 5 5 5 5 4 4 4 4 4 4 3 3 1 1 2 2 1 1 1 1 2 2 2 3 4 5 6 7
6 6 6 7 7 6 6 6 6 6 6 6 6 6 5 5 5 5 5 5 4 4 4 4 4 4 4 3 2 1 1 2 2 1 2 2 2 2 2 3 3 4 5 6
7 6 6 6 6 6 5 5 5 6 6 6 6 5 5 5 5 6 5 4 4 4 4 4 4 4 4 3 2 2 2 1 2 2 2 2 2 2 2 3 3 3 4 5
8 6 5 5 6 6 6 5 5 6 6 6 6 6 5 5 5 5 5 4 4 4 5 4 4 4 4 3 3 2 2 3 3 2 2 2 2 2 2 3 3 3 3 4
6 6 6 6 6 6 6 6 5 6 6 6 6 6 5 5 5 6 6 5 4 4 5 4 4 4 4 3 3 2 2 2 3 3 2 2 2 2 3 3 3 3 4 4
5 5 5 5 5 6 6 6 5 6 6 6 5 5 5 5 5 6 6 6 5 5 5 4 4 4 4 3 3 2 2 2 2 2 2 2 3 3 3 3 4 4 4 4
6 6 5 5 5 4 5 5 6 6 6 5 4 4 5 5 5 6 6 5 5 5 6 5 6 4 3 4 4 2 2 2 2 2 2 3 3 3 3 3 4 4 4 4
7 7 6 6 5 5 5 5 5 5 5 4 4 4 5 5 5 5 5 5 4 5 5 5 5 4 4 4 4 2 2 2 2 3 3 3 3 4 4 4 4 4 4 4
8 7 7 6 6 6 5 5 5 5 5 4 4 4 5 6 5 5 5 5 6 5 5 6 4 3 3 4 4 2 2 2 3 3 3 3 4 4 4 4 4 4 4 5
7 7 6 6 6 6 6 5 5 5 5 5 5 5 5 5 5 5 4 4 6 7 5 4 4 5 5 5 3 3 3 3 3 3 3 4 4 4 4 4 5 5 5 5
6 6 6 6 6 6 6 5 5 5 5 5 5 5 5 5 4 4 5 4 5 7 5 4 6 7 7 4 3 3 3 3 3 4 4 4 4 4 4 5 5 5 5 5
6 6 6 6 5 5 6 6 6 5 5 5 5 5 5 4 4 4 4 7 8 8 5 6 8 8 6 3 3 3 3 4 4 4 4 4 4 4 4 4 5 5 5 6
6 6 6 6 5 5 6 6 6 6 6 5 5 5 4 3 4 5 5 5 7 7 5 6 8 8 5 3 3 4 4 4 4 4 4 4 4 4 5 5 5 5 5 5
6 6 6 6 5 5 5 5 5 5 5 5 5 5 4 4 4 4 4 5 6 6 5 4 5 5 4 4 4 4 4 5 5 5 5 5 5 5 5 5 7 6 5 5
6 5 5 5 5 5 5 5 5 5 5 5 6 5 5 4 4 4 5 4 4 4 4 4 4 4 4 4 4 4 4 4 4 5 5 5 5 5 5 6 6 6 6 6
Wind_Direction
267 276 269 258 250 234 229 240 250 263 263 270 279 285 288 289 294 296 298 299 298 297 293 283 276 270 263 261 259 247 241 240 243 243 241 240 239 239 239 238 233 234 235 235
274 268 267 267 257 244 242 247 252 264 270 276 282 285 283 286 289 293 297 299 300 298 295 289 282 274 267 263 259 247 239 240 240 239 239 239 241 242 242 242 235 233 236 236
269 283 284 264 247 231 232 233 239 254 267 284 288 290 295 296 292 289 292 298 300 297 291 287 282 278 273 270 264 248 239 238 237 235 237 239 240 242 243 245 241 237 238 237
270 276 251 270 19 227 238 251 246 256 271 279 285 295 291 286 287 292 295 297 298 297 293 288 284 278 271 266 259 246 239 239 239 237 239 240 240 242 244 245 242 236 238 239
244 262 273 278 247 229 248 271 253 251 270 288 304 298 289 291 301 298 296 295 294 292 290 286 280 273 264 260 255 248 241 242 242 238 237 237 239 243 245 247 248 243 240 239
237 254 264 288 30 336 264 266 256 259 275 288 297 287 299 325 318 307 305 302 298 296 290 283 279 270 258 258 255 252 251 248 245 241 238 240 241 244 249 247 249 254 246 242
236 248 265 328 356 266 245 302 325 286 283 284 277 280 304 314 312 308 308 306 303 298 289 281 276 264 256 259 261 263 263 256 247 243 243 242 243 245 245 248 249 253 253 249
219 237 258 40 118 224 282 317 306 299 295 291 289 293 299 304 307 310 312 310 308 301 294 288 272 254 256 265 272 272 263 258 248 247 247 243 242 246 245 245 249 254 254 254
215 239 312 241 256 283 305 297 300 298 299 294 293 295 301 304 306 309 310 311 309 299 299 300 282 258 256 270 276 271 263 262 252 252 252 247 243 244 244 244 247 256 259 256
254 266 289 293 299 306 307 300 304 306 304 301 294 297 304 307 310 313 315 314 313 309 306 307 303 289 268 272 268 259 259 264 250 242 246 251 251 245 244 245 251 258 262 267
263 288 306 295 299 305 310 312 313 314 313 306 302 302 304 306 308 311 313 316 319 316 312 310 309 300 295 284 262 259 267 265 257 253 255 261 270 268 266 265 264 265 269 271
275 283 274 290 305 310 308 310 311 313 316 315 308 302 307 309 311 313 316 322 329 331 328 325 326 324 321 316 278 257 280 290 276 265 269 276 292 311 305 291 294 291 288 287
280 300 295 296 303 308 307 310 312 311 307 310 314 311 311 314 318 323 325 330 332 331 332 330 331 327 323 322 309 287 284 288 280 275 274 278 286 294 313 326 320 311 308 308
299 303 298 301 304 314 315 315 318 319 316 315 316 321 323 323 327 329 329 329 331 333 332 332 331 324 321 323 320 308 297 290 293 287 289 287 287 291 295 305 318 324 328 325
324 312 295 306 314 320 322 322 324 323 325 328 328 329 330 328 326 326 328 334 338 339 335 334 331 325 327 329 322 314 308 306 313 311 300 295 292 295 299 301 303 312 322 329
327 330 323 316 315 321 325 325 320 318 324 325 327 330 328 324 323 326 333 339 339 331 328 330 326 325 329 331 331 325 317 314 320 310 305 303 302 300 299 300 300 301 305 315
336 333 333 330 326 324 320 315 312 314 320 323 322 325 329 334 337 338 339 339 332 321 320 322 321 325 330 332 324 322 322 316 316 317 308 304 305 300 297 296 297 300 302 308
322 314 309 305 309 317 322 324 324 321 317 316 319 325 330 331 328 327 329 331 333 333 333 332 328 331 335 335 328 322 314 310 309 311 308 306 307 303 301 299 300 301 305 310
343 340 336 330 322 320 320 322 323 321 319 321 323 323 321 319 319 321 325 331 331 327 328 332 332 335 332 332 334 325 313 309 310 307 305 307 309 305 302 301 303 305 308 310
349 349 348 343 340 334 327 324 325 325 324 324 324 325 327 326 325 324 324 320 314 312 316 323 327 325 324 323 326 321 315 306 302 302 303 302 301 303 305 305 305 305 304 304
342 342 343 343 340 337 331 324 322 323 325 328 324 318 317 319 322 321 321 320 323 324 321 322 327 324 322 322 318 314 310 308 304 299 299 299 300 303 304 306 305 305 305 305
335 336 337 336 336 333 332 328 324 322 325 325 321 318 319 320 321 317 306 302 316 326 328 323 322 322 326 323 318 316 311 308 305 305 303 302 301 301 302 305 304 304 304 302
330 331 331 330 328 325 327 330 328 324 321 318 316 314 312 309 311 311 315 321 322 324 326 321 322 325 328 331 327 321 316 312 309 307 305 303 301 300 300 302 302 301 301 301
330 329 328 326 327 328 328 329 328 322 316 312 311 308 306 308 311 304 300 315 326 324 323 324 329 330 331 333 323 317 313 309 307 306 305 303 301 300 300 300 299 299 300 301
329 328 330 331 330 325 320 323 327 327 325 325 323 317 308 300 299 308 313 317 322 325 324 327 331 334 336 327 321 316 313 308 307 307 304 303 302 302 300 299 298 298 299 299
329 327 324 321 319 319 320 322 323 325 326 324 324 322 321 318 312 311 314 319 321 324 326 324 326 328 329 324 317 313 310 310 309 309 306 304 301 300 300 300 299 297 296 297
331 330 329 330 333 332 327 323 320 320 321 316 315 319 324 324 325 327 326 325 325 326 327 326 326 325 323 320 316 314 311 309 307 305 305 302 298 297 298 297 297 297 298 299
Height
1479 1478 1480 1478 1478 1480 1479 1471 1466 1454 1454 1451 1453 1454 1454 1453 1452 1450 1448 1446 1444 1443 1441 1439 1437 1436 1435 1433 1433 1433 1433 1432 1432 1433 1433 1433 1433 1434 1435 1436 1437 1438 1438 1439
1480 1478 1479 1476 1470 1471 1471 1469 1464 1459 1454 1452 1453 1453 1451 1450 1449 1447 1444 1442 1440 1438 1436 1434 1432 1430 1429 1428 1428 1427 1427 1426 1427 1427 1427 1427 1427 1428 1429 1429 1430 1431 1432 1432
1470 1476 1476 1464 1459 1462 1463 1462 1461 1454 1449 1451 1451 1450 1449 1447 1445 1443 1441 1439 1436 1433 1431 1429 1427 1424 1423 1423 1422 1422 1421 1421 1421 1421 1422 1422 1422 1423 1423 1424 1424 1425 1426 1426
1473 1474 1466 1451 1458 1457 1457 1456 1456 1453 1450 1450 1449 1448 1446 1444 1442 1439 1437 1434 1432 1429 1426 1424 1422 1421 1420 1419 1417 1416 1416 1416 1416 1416 1417 1417 1417 1418 1418 1418 1418 1419 1420 1420
1474 1465 1453 1452 1457 1458 1457 1451 1451 1450 1449 1448 1447 1444 1440 1439 1438 1436 1433 1430 1428 1424 1421 1419 1418 1417 1415 1414 1413 1412 1411 1411 1411 1411 1412 1412 1412 1413 1413 1413 1413 1413 1414 1414
1473 1466 1453 1447 1457 1457 1458 1448 1448 1448 1447 1446 1445 1441 1436 1436 1434 1431 1429 1426 1423 1420 1417 1415 1414 1413 1411 1409 1408 1407 1407 1407 1407 1407 1407 1407 1408 1408 1408 1409 1409 1408 1409 1409
1470 1463 1450 1456 1458 1458 1453 1445 1449 1447 1446 1444 1443 1441 1438 1434 1431 1428 1424 1421 1418 1415 1413 1411 1409 1408 1407 1405 1404 1404 1404 1404 1403 1404 1404 1404 1404 1404 1404 1404 1404 1404 1404 1404
1467 1463 1454 1458 1457 1456 1451 1450 1448 1446 1444 1442 1439 1437 1434 1431 1427 1424 1421 1417 1414 1411 1408 1406 1405 1404 1403 1402 1402 1401 1401 1400 1400 1400 1401 1400 1400 1400 1400 1400 1400 1400 1400 1399
1462 1459 1456 1456 1454 1453 1451 1449 1446 1444 1441 1439 1436 1433 1431 1427 1424 1421 1418 1414 1411 1408 1405 1403 1402 1401 1400 1399 1399 1398 1398 1397 1397 1397 1397 1397 1397 1396 1396 1396 1396 1396 1395 1395
1461 1456 1456 1455 1452 1450 1449 1446 1444 1442 1439 1436 1433 1430 1428 1424 1421 1418 1415 1411 1408 1406 1403 1401 1399 1399 1398 1397 1396 1396 1395 1395 1394 1394 1394 1394 1394 1394 1393 1392 1392 1392 1391 1390
1459 1456 1454 1451 1450 1448 1446 1443 1441 1439 1436 1434 1431 1427 1425 1422 1419 1416 1412 1409 1406 1404 1401 1399 1398 1397 1396 1395 1394 1394 1393 1392 1392 1392 1392 1391 1391 1391 1390 1389 1389 1388 1387 1387
1456 1455 1454 1450 1448 1446 1444 1441 1439 1436 1433 1431 1429 1425 1422 1419 1417 1414 1410 1408 1405 1403 1401 1399 1397 1396 1395 1394 1393 1392 1391 1390 1390 1389 1389 1388 1388 1387 1386 1386 1385 1385 1384 1383
1456 1453 1451 1448 1446 1444 1441 1439 1436 1434 1432 1429 1426 1423 1420 1417 1414 1412 1409 1406 1404 1402 1400 1398 1396 1395 1394 1392 1391 1390 1389 1389 1388 1387 1387 1386 1385 1384 1383 1382 1382 1381 1380 1378
1453 1451 1448 1445 1443 1441 1439 1437 1434 1432 1430 1427 1424 1421 1418 1415 1412 1410 1407 1405 1403 1401 1399 1397 1396 1394 1393 1391 1390 1389 1388 1387 1386 1386 1385 1384 1383 1382 1381 1380 1378 1377 1376 1374
1451 1449 1446 1443 1441 1439 1437 1434 1432 1429 1427 1424 1422 1419 1416 1413 1411 1408 1406 1404 1402 1400 1398 1397 1395 1393 1392 1390 1389 1388 1387 1386 1385 1384 1383 1382 1382 1380 1379 1378 1376 1375 1373 1372
1448 1446 1444 1441 1439 1437 1435 1432 1430 1427 1425 1422 1420 1417 1415 1412 1409 1407 1405 1403 1401 1399 1397 1396 1394 1393 1391 1389 1388 1387 1386 1385 1384 1382 1381 1380 1379 1378 1377 1376 1374 1373 1371 1370
1447 1444 1441 1439 1437 1435 1433 1431 1428 1426 1423 1421 1418 1416 1413 1410 1408 1405 1404 1402 1400 1398 1397 1395 1393 1392 1390 1389 1387 1386 1385 1383 1382 1380 1379 1378 1377 1376 1375 1374 1373 1371 1370 1369
1447 1444 1442 1439 1436 1433 1431 1429 1427 1424 1422 1419 1417 1414 1412 1409 1407 1405 1403 1401 1399 1397 1396 1394 1392 1391 1389 1388 1387 1385 1384 1382 1381 1379 1378 1377 1376 1375 1374 1372 1371 1369 1368 1366
1445 1442 1439 1437 1435 1432 1429 1427 1425 1423 1421 1418 1416 1413 1411 1409 1407 1404 1402 1400 1397 1395 1394 1393 1391 1389 1388 1387 1385 1384 1382 1381 1379 1378 1377 1376 1375 1373 1372 1370 1369 1367 1366 1364
1443 1440 1438 1435 1433 1430 1428 1425 1423 1421 1419 1417 1414 1412 1410 1407 1405 1403 1401 1399 1397 1395 1393 1392 1390 1388 1386 1385 1384 1383 1381 1380 1378 1377 1376 1375 1374 1372 1371 1369 1367 1366 1364 1363
1441 1439 1436 1433 1431 1429 1426 1424 1422 1420 1418 1416 1413 1411 1408 1406 1404 1402 1400 1397 1396 1394 1392 1391 1389 1387 1386 1384 1383 1381 1380 1379 1377 1376 1375 1374 1372 1371 1369 1367 1366 1364 1362 1361
1440 1437 1435 1432 1430 1427 1425 1423 1421 1418 1416 1414 1412 1409 1407 1405 1403 1401 1399 1397 1395 1393 1391 1389 1388 1386 1385 1383 1382 1380 1379 1377 1376 1375 1373 1372 1370 1369 1367 1366 1364 1362 1360 1359
1439 1437 1434 1431 1429 1426 1424 1421 1419 1417 1414 1412 1410 1408 1405 1403 1401 1399 1397 1396 1394 1392 1390 1388 1386 1385 1383 1382 1380 1379 1377 1376 1374 1373 1372 1370 1368 1367 1365 1363 1362 1360 1358 1356
1438 1435 1433 1430 1428 1425 1422 1419 1417 1415 1413 1410 1408 1406 1404 1402 1400 1398 1396 1394 1392 1390 1388 1386 1385 1383 1381 1380 1378 1377 1375 1374 1373 1371 1370 1368 1366 1364 1363 1361 1359 1358 1356 1354
1437 1434 1431 1428 1426 1423 1421 1418 1415 1413 1411 1408 1406 1404 1402 1400 1398 1396 1394 1392 1390 1388 1386 1384 1383 1381 1379 1378 1376 1375 1373 1372 1370 1369 1367 1365 1364 1362 1360 1359 1357 1355 1353 1352
1435 1432 1430 1427 1425 1422 1419 1416 1414 1411 1409 1406 1404 1402 1400 1398 1396 1394 1392 1390 1388 1386 1384 1382 1381 1379 1377 1376 1374 1373 1371 1370 1368 1366 1365 1363 1361 1360 1358 1356 1354 1353 1351 1349
1433 1430 1428 1425 1422 1420 1417 1415 1412 1409 1407 1404 1402 1400 1398 1396 1394 1392 1390 1388 1386 1384 1382 1381 1379 1377 1376 1374 1373 1371 1370 1368 1366 1364 1363 1361 1359 1358 1356 1354 1352 1350 1348 1347